GFSNIL_925_spd_240.txt.gz
Wind_Speed
37 33 32 31 30 29 28 28 27 25 24 25 27 25 26 22 21 29 29 24 22 25
37 37 35 35 33 31 30 28 28 27 27 25 20 20 22 21 22 23 22 18 28 25
39 36 34 34 32 31 32 28 25 24 23 20 16 19 22 23 22 20 22 22 19 21
37 37 36 35 36 32 30 25 21 19 19 17 16 17 16 19 19 19 17 20 24 23
37 37 37 38 40 35 27 13 14 13 15 13 13 16 18 18 19 18 18 20 20 21
39 38 38 39 39 36 21 5 5 7 10 10 12 12 13 14 18 18 17 17 18 18
40 39 39 39 39 36 27 6 2 3 7 9 11 10 11 11 12 10 12 16 18 16
40 39 40 42 41 39 34 11 7 4 3 7 8 9 11 13 12 12 15 18 14 16
38 39 40 41 43 44 42 25 16 11 5 3 6 8 11 12 16 16 14 14 12 12
37 37 40 40 41 41 39 34 33 29 12 4 6 9 11 11 17 15 15 14 12 13
36 36 34 38 38 38 38 37 36 34 32 27 30 3 9 10 7 19 17 14 11 10
36 36 35 30 33 35 35 37 40 38 35 35 36 32 30 30 29 17 13 4 8 2
36 34 35 36 30 26 31 35 37 38 39 40 40 43 41 40 35 35 35 41 37 35
38 31 34 34 33 33 28 29 29 36 41 37 42 45 44 40 36 32 35 33 33 35

GFSNIL_925_spd_246.txt.gz
Wind_Speed
36 34 32 31 32 29 28 29 33 28 23 20 20 13 16 19 19 22 24 25 26 25
37 36 35 35 31 29 29 31 30 10 10 12 13 14 13 17 18 18 15 18 17 16
38 37 37 35 34 31 27 23 17 9 6 7 9 10 14 16 15 14 16 16 17 10
38 36 38 37 38 38 25 20 16 11 7 3 5 8 9 8 15 12 16 16 13 23
37 34 36 37 37 38 35 21 17 11 6 5 5 6 7 8 9 11 13 15 18 16
36 34 38 36 36 36 35 31 20 14 10 8 7 7 8 9 10 14 11 12 14 15
35 36 32 36 37 37 36 34 30 21 16 13 13 11 10 9 11 12 11 15 16 16
33 34 34 35 37 39 39 33 33 32 31 24 20 18 13 11 10 10 10 11 12 14
32 33 34 32 34 35 37 38 32 36 27 29 25 13 14 17 15 9 9 9 9 14
31 31 33 33 30 34 34 36 38 33 34 32 33 28 17 12 12 14 5 5 5 6
31 30 32 34 33 31 31 32 33 34 38 36 40 37 35 34 32 21 17 4 4 6
31 30 31 32 31 31 31 32 33 34 33 36 38 41 39 34 31 28 27 28 25 23
31 31 32 32 30 29 31 31 31 32 36 32 31 38 36 31 32 27 24 26 28 27
31 28 32 30 30 29 27 27 30 32 36 38 32 34 33 32 31 24 21 25 25 26

GFSNIL_925_spd_252.txt.gz
Wind_Speed
33 31 29 31 31 28 27 29 31 23 21 18 12 10 12 14 14 17 19 20 16 15
33 32 31 29 32 31 31 31 30 23 19 16 13 11 8 13 13 16 16 17 18 18
33 32 31 29 33 33 34 34 29 29 21 16 13 11 9 9 8 10 14 13 15 16
33 33 34 31 33 34 34 35 34 27 27 21 15 10 9 8 7 7 6 11 13 14
34 33 33 34 32 33 34 35 35 33 27 23 19 12 8 8 6 7 7 9 8 10
33 34 32 33 34 34 33 35 35 37 32 25 18 12 10 9 6 6 7 6 7 8
33 32 33 34 36 35 34 33 36 38 35 33 24 19 12 10 7 5 6 7 9 10
32 32 34 35 35 36 36 35 35 38 38 37 35 22 7 6 4 3 4 3 7 5
32 32 33 34 37 36 35 37 36 38 38 32 39 40 23 12 15 12 8 8 8 6
33 32 33 32 33 36 35 35 38 37 39 33 37 37 35 32 33 27 23 17 14 10
34 33 33 32 29 29 32 34 34 36 38 35 33 35 32 31 30 22 21 22 22 21
31 32 33 32 28 26 26 29 33 35 36 35 33 31 31 30 32 31 32 23 22 24
27 28 28 30 31 28 23 25 25 29 35 31 32 31 29 30 27 27 25 29 24 28
24 27 25 23 32 31 26 23 24 26 26 35 28 31 30 27 29 25 25 26 27 28

GFSNIL_925_spd_255.txt.gz
Wind_Speed
27 26 27 29 29 28 29 29 32 28 28 17 15 12 8 9 8 10 15 18 17 15
27 26 26 27 28 29 29 30 31 32 25 23 15 11 8 6 10 8 10 13 18 18
25 25 24 25 28 29 31 31 31 33 31 22 17 12 9 7 6 5 7 14 14 16
26 25 25 24 26 30 33 32 32 33 31 27 18 10 8 6 5 4 6 5 11 14
26 26 26 25 26 32 32 34 34 37 33 30 17 7 7 5 4 4 4 6 5 6
26 26 26 28 28 28 33 33 35 40 38 33 22 6 6 5 4 3 3 3 4 5
27 27 26 27 29 30 31 33 35 37 41 35 34 12 3 1 4 4 5 6 6 7
25 26 26 26 29 29 32 33 35 36 41 32 36 30 19 14 11 7 6 6 7 8
25 27 26 26 27 25 31 32 35 37 37 32 32 29 27 28 25 21 16 11 10 7
24 27 28 27 25 22 27 31 34 34 34 35 28 29 28 27 24 19 17 18 18 13
24 26 27 28 25 24 24 26 30 34 36 33 29 28 27 23 25 25 25 16 17 20
25 25 26 25 29 25 22 23 25 29 32 30 32 29 27 25 24 24 26 33 21 17
24 25 26 24 23 28 26 24 22 23 29 28 29 29 27 25 22 24 25 26 30 25
23 21 24 23 20 22 24 26 23 24 22 27 26 28 27 26 22 19 20 23 24 26

GFSNIL_925_spd_261.txt.gz
Wind_Speed
24 24 24 24 24 25 28 28 29 28 28 25 17 14 14 9 5 4 5 9 8 12
25 27 27 27 23 24 27 30 29 32 28 24 14 10 11 9 7 5 4 7 8 9
24 26 26 25 26 25 28 30 28 37 32 26 11 6 7 7 6 5 1 3 4 4
24 23 25 24 25 26 26 29 29 35 37 28 15 9 10 11 9 6 4 4 3 5
23 22 23 24 24 26 25 26 29 31 36 30 29 20 19 19 13 12 11 10 8 7
23 23 23 24 23 25 26 24 25 28 32 28 25 24 21 19 17 16 14 14 13 12
22 22 23 22 23 23 24 24 26 26 26 28 23 22 21 19 19 16 15 14 12 13
20 20 21 22 21 21 23 24 22 24 26 26 24 24 21 18 19 19 18 16 16 13
20 19 20 20 21 21 22 23 23 24 24 25 23 24 20 17 17 18 24 19 20 17
19 20 19 19 20 20 19 21 21 23 24 23 27 26 22 16 16 18 20 27 18 18
19 19 18 19 20 19 19 19 19 21 23 23 26 28 25 18 16 16 18 21 22 16
18 17 18 17 18 19 18 17 17 17 21 21 24 27 27 20 16 16 16 17 21 21
17 16 16 16 17 17 17 16 17 17 17 20 21 24 25 24 18 16 16 15 16 19
17 15 14 14 15 17 17 17 16 17 16 17 20 23 23 23 20 18 15 15 16 16

GFSNIL_925_spd_264.txt.gz
Wind_Speed
21 31 28 29 32 26 29 31 32 37 33 24 12 10 10 14 9 4 3 5 7 6
24 27 29 30 24 26 29 31 30 39 37 24 14 12 14 16 10 6 4 3 4 8
27 22 27 28 27 27 26 29 30 33 34 30 22 19 19 20 16 12 5 3 5 3
23 24 25 25 27 28 28 25 28 29 32 28 28 25 24 21 18 17 17 12 6 4
23 25 24 24 26 30 27 24 26 29 29 26 25 25 24 22 24 21 19 17 15 15
26 23 24 21 27 29 27 23 28 28 28 25 22 23 24 26 23 21 19 19 17 15
24 21 24 22 21 24 25 24 25 26 27 26 25 21 21 21 25 24 21 19 17 18
23 22 22 24 22 19 24 25 24 27 27 28 23 22 18 20 19 22 24 22 23 18
22 22 20 22 23 20 21 18 22 25 28 27 25 25 20 16 18 20 23 25 25 19
21 21 20 24 22 23 20 21 16 21 23 25 24 27 23 18 19 17 18 22 23 20
21 20 20 22 25 22 20 21 18 16 21 23 23 27 26 21 21 20 17 19 21 23
20 19 19 19 23 23 22 20 20 18 17 22 25 25 25 23 23 21 17 18 17 19
19 19 18 19 19 20 20 21 21 19 20 19 22 24 24 22 22 23 20 18 18 18
17 17 18 19 19 19 20 20 20 22 20 23 21 25 25 24 22 20 18 18 20 21